Regional Weather Roundup
Issued by NWS

Home | Current Version | Previous Version | Graphics & Text | Print | Product List | Glossary On
Versions: 1 2 3 4 5 6 7 8 9 10 11 12 13 14 15 16 17 18 19 20 21 22 23 24 25 26 27 28 29 30 31 32 33 34 35 36 37 38 39 40 41 42 43 44 45 46 47 48 49 50
000
ASUS43 KLOT 230800
RWRIL

ILLINOIS REGIONAL WEATHER ROUNDUP
NATIONAL WEATHER SERVICE CHICAGO/ROMEOVILLE IL
300 AM CDT THU OCT 23 2014

NOTE: "FAIR" INDICATES FEW OR NO CLOUDS BELOW 12,000 FEET WITH NO
SIGNIFICANT WEATHER AND/OR OBSTRUCTIONS TO VISIBILITY.

* THESE STATIONS ARE NOT UNDER NWS QUALITY CONTROL. THEY ALSO MAY NOT
  REPORT WEATHER SUCH AS PRECIPITATION OR FOG.

ILZ001-002-007-009-015-016-024-230900-
NORTHWEST ILLINOIS

CITY           SKY/WX    TMP DP  RH WIND       PRES   REMARKS
MOLINE         CLEAR     41  34  76 SE5       30.18S
STERLING*      CLEAR     34  28  80 SE5       30.20F WCI  30
$$

ILZ003-004-008-010-011-017-018-230900-
NORTH CENTRAL ILLINOIS

CITY           SKY/WX    TMP DP  RH WIND       PRES   REMARKS
ROCKFORD       PTCLDY    38  33  82 S7        30.22F WCI  33
$$

ILZ005-006-012>014-019>023-230900-
NORTHEAST ILLINOIS

CITY           SKY/WX    TMP DP  RH WIND       PRES   REMARKS
CHICAGO-OHARE  CLEAR     38  35  89 S5        30.23F WCI  34
CHICAGO-MIDWAY CLEAR     43  39  86 S7        30.24F
AURORA         CLEAR     35  31  85 SE6       30.23S FOG     WCI  30
WAUKEGAN       CLEAR     34  32  92 SW5       30.23S WCI  30
DUPAGE AIRPORT CLEAR     36  33  89 S3        30.23S
WHEELING       CLEAR     37  33  85 CALM      30.25F
NORTHERLY ISL    N/A     44  39  82 SW3         N/A
$$

LMZ740>746-230900-
SOUTHERN LAKE MICHIGAN

STATION/POSITION SKY/WX   TEMP    WIND        PRES    VSBY  WAVE
                          AIR SEA DIR/SP/G                  HT/PER
                          (F)     (DEG/KT/KT) (MB)    (MI)  (FT/S)
SOUTHERN BUOY              50 54  170/ 12/ 14 1024.8F         1/ 3
WAUKEGAN HARBOR            46     220/  7/  8   N/A
HARRISON CRIB              48     180/ 15/ 17   N/A
BURNHAM HARBOR             44     170/  4/  8   N/A
CALUMET HARBOR             44     170/  7/ 11 1022.9F
MICHIGAN CITY              42     130/  9/ 11   N/A
$$

ILZ025>027-034>036-040-047-049-050-058-095>099-230900-
WEST-CENTRAL ILLINOIS

CITY           SKY/WX    TMP DP  RH WIND       PRES   REMARKS
QUINCY         PTCLDY    46  39  76 SE8       30.17F
$$

ILZ028>032-037-038-041>044-048-051>054-059>061-230900-
CENTRAL ILLINOIS

CITY           SKY/WX    TMP DP  RH WIND       PRES   REMARKS
DECATUR        CLEAR     37  34  89 CALM      30.23S
PEORIA         CLEAR     45  36  70 SE6       30.21F
SPRINGFIELD    CLEAR     40  36  86 SE5       30.22F
TAYLORVILLE    NOT AVBL
$$

ILZ033-039-045-046-055>057-062-063-230900-
EAST-CENTRAL ILLINOIS

CITY           SKY/WX    TMP DP  RH WIND       PRES   REMARKS
CHAMPAIGN      CLEAR     35  33  92 SE5       30.24S WCI  31
MATTOON        CLEAR     41  37  86 S5        30.22F
$$

ILZ079-100>102-230900-
SOUTHWEST ILLINOIS

CITY           SKY/WX    TMP DP  RH WIND       PRES   REMARKS
BELLEVILLE     CLEAR     39  38  99 CALM      30.22S FOG
CAHOKIA*       CLEAR     39  37  92 CALM      30.22F
$$

ILZ064>066-069>071-074>076-080>082-084>086-088>090-092>094-230900-
SOUTH-CENTRAL ILLINOIS

CITY           SKY/WX    TMP DP  RH WIND       PRES   REMARKS
CARBONDALE     PTCLDY    36  35  96 CALM      30.23S FOG
MT. VERNON     CLEAR     34  28  80 CALM      30.23F
$$

ILZ067-068-072-073-078-083-087-091-230900-
SOUTHEAST ILLINOIS

CITY           SKY/WX    TMP DP  RH WIND       PRES   REMARKS
LAWRENCEVILLE  CLEAR     40  39  97 NE3       30.26S
$$

ABBREVIATIONS USED IN REMARKS
   TC - TEMPERATURE IN CELSIUS
  WCI - WIND CHILL INDEX
   HX - HEAT INDEX
  VSB - VISIBILITY
$$




USA.gov is the U.S. government's official web portal to all federal, state and local government web resources and services.